sat.trackr.live / text

‹ back to catalog

BEIDOU-3 M21 (C43)

NORAD 44794 · 2019-078B

PAYLOAD ACTIVE UNKNOWN

§ Identity

Operator
Country
PRC
Launch date
2019-11-23
Launch site
XICLF
Launch vehicle
Mass (kg)
RCS (m²)

Purposes: earth_obs, nav

External: N2YO · Heavens-Above · Gunter

§ Orbital elements

Epoch: 2026-09-05T18:23:28.141152Z

Period
773.25 min
Inclination
53.8332°
Eccentricity
0.0002765
Mean motion
1.86227688 rev/d
Perigee alt
21,520.7 km
Apogee alt
21,536.1 km
Semi-major
27,906.5 km
B*
0.0000e+0
RAAN
296.9464°
Arg perigee
34.7964°
Mean anomaly
325.2917°
Rev number
4,615

§ Raw data

BEIDOU-3 M21 (C43)1 44794U 19078B   26248.76629793 -.00000018  00000+0  00000+0 0  99922 44794  53.8332 296.9464 0002765  34.7964 325.2917  1.86227688 46150

JSON: /api/v1/satellites/44794 · /tle

For live sub-satellite position, see the globe view (requires WebGL).

§ Visibility from observer

Set your observer location to see the next 7 days of passes ≥ 10°. The values pass through the URL so the page stays shareable.

No JS? Fill the form by hand. The geolocation button needs JavaScript.